Wind_Speed
25 25 18 13 10 13 15 12 15 13 14 11 13 14 17 14 12 12 14 16 13 10 3 6 7 8 6 8 12 17 22 21 19 14 13 10 7 6 5 2 2 1 4 6
26 20 17 14 10 16 11 11 10 10 10 11 14 14 11 11 11 11 11 12 13 12 10 6 10 9 10 11 12 17 17 18 17 16 14 11 10 8 5 4 3 4 6 7
23 20 21 20 16 14 11 13 15 11 11 10 10 12 9 7 7 6 8 11 11 10 11 10 6 3 9 11 14 18 19 17 16 17 17 14 11 8 8 7 4 7 8 8
21 22 19 15 13 9 7 12 12 12 11 9 7 6 8 5 3 2 2 4 8 9 9 8 8 7 5 4 12 12 14 13 15 16 19 16 12 12 10 9 7 6 8 9
23 19 16 14 9 4 3 7 4 5 4 6 6 5 5 3 4 3 4 5 1 4 7 8 9 8 8 4 2 15 11 8 5 8 19 15 12 12 11 8 5 5 7 7
21 17 11 10 9 4 2 5 4 3 2 6 4 3 4 5 5 5 5 4 5 2 4 5 8 9 9 7 4 8 8 9 9 12 13 12 9 6 6 4 5 5 5 6
19 17 16 13 12 7 8 5 4 4 4 8 7 5 9 4 8 3 4 6 2 4 6 3 4 6 8 9 4 5 7 8 8 10 10 7 4 3 2 3 5 6 7 8
19 17 19 18 12 10 6 6 6 7 7 2 6 9 9 10 13 12 12 11 9 12 7 2 4 6 4 2 1 5 6 9 11 9 9 8 6 4 5 6 9 9 10 12
25 16 16 13 10 6 6 5 6 8 10 11 7 1 8 10 11 13 15 13 14 15 15 8 7 5 6 6 6 5 5 5 5 4 5 7 7 8 9 11 10 13 14 14
21 19 16 13 9 8 5 8 8 10 12 11 11 11 12 15 6 13 15 14 15 16 15 14 13 8 8 7 7 7 5 4 3 4 5 5 5 6 7 13 9 10 11 14
19 18 17 17 13 9 12 13 12 15 12 13 14 16 21 8 14 24 18 16 19 15 20 18 18 12 13 10 7 5 6 6 5 6 5 5 1 4 3 6 3 11 11 11
18 17 16 18 17 15 14 6 7 7 13 19 19 18 16 16 23 17 10 17 20 19 22 23 20 14 16 10 8 7 6 4 4 4 4 2 5 5 8 9 10 11 12 13
18 17 23 19 19 16 13 9 12 12 11 10 13 18 16 16 12 12 11 11 18 25 25 24 22 16 14 12 11 10 8 6 6 6 5 6 7 9 11 10 10 11 12 14
17 18 16 15 10 11 9 11 17 12 15 14 19 14 14 18 15 11 10 6 13 26 33 27 15 20 12 12 10 10 10 9 7 5 6 8 9 12 14 13 12 11 12 14
16 21 21 21 18 15 15 16 21 20 18 18 15 8 14 19 24 13 6 5 8 17 14 20 20 16 14 12 11 11 8 7 6 6 7 9 11 12 12 15 16 14 14 15
18 20 22 24 23 20 20 22 22 22 22 17 14 14 16 20 23 11 7 6 8 7 24 20 14 14 15 14 14 9 8 7 8 7 6 9 12 14 14 18 19 17 19 19
29 26 26 28 30 27 27 23 19 17 20 15 17 18 19 21 18 6 8 10 6 8 11 15 16 16 15 11 11 10 11 11 10 10 11 14 14 14 15 18 18 18 17 17
27 28 33 31 32 38 25 20 20 16 23 18 17 18 21 13 12 5 5 11 10 11 15 17 17 17 16 12 12 15 14 14 12 11 13 16 18 18 18 17 16 17 17 17
37 34 32 33 31 34 29 27 23 19 23 22 22 20 15 15 10 4 6 13 11 15 17 18 15 12 15 17 17 18 19 17 14 14 16 18 19 18 17 17 18 17 17 17
43 38 41 38 38 36 34 30 27 18 23 26 25 22 20 14 2 7 8 5 13 18 19 22 19 18 18 20 21 20 18 17 18 17 17 18 17 16 17 17 16 15 14 15
49 48 44 43 41 41 34 36 32 26 26 28 27 27 25 17 11 10 10 13 14 14 19 19 18 19 17 21 21 20 18 19 18 18 19 19 18 18 18 16 15 16 14 14
53 54 53 50 51 50 46 39 36 35 26 29 32 29 25 19 17 13 11 8 13 15 15 18 17 15 16 19 20 21 18 16 17 18 19 19 18 18 18 16 17 17 16 16
51 51 53 58 64 58 51 47 42 38 38 37 33 33 27 22 24 21 14 10 12 15 15 17 18 17 16 15 7 17 14 12 14 15 17 18 17 17 17 16 17 17 18 19
52 54 54 54 58 57 60 57 52 46 46 42 44 39 36 26 29 30 27 19 11 15 16 16 16 16 16 18 12 11 12 14 15 16 16 15 14 15 16 16 16 16 17 18
55 55 56 57 58 57 56 58 62 56 51 46 49 47 44 41 34 36 35 27 18 14 16 18 18 18 18 17 15 14 15 17 18 17 16 15 14 14 15 15 16 16 17 18
58 59 59 58 59 60 59 58 58 60 62 61 58 51 50 47 40 39 37 35 28 22 20 21 20 20 20 18 17 17 17 17 17 18 16 14 13 13 14 15 15 16 17 17
Wind_Direction
110 112 111 112 114 120 110 105 72 74 78 73 67 79 80 63 59 47 46 48 56 67 174 194 226 236 213 178 178 183 201 211 207 226 204 182 176 147 124 117 106 313 330 315
121 116 123 113 123 129 122 93 74 89 84 80 65 65 79 80 66 63 56 46 46 59 74 146 187 209 215 198 197 211 209 210 216 209 206 194 180 170 167 180 197 279 302 299
133 136 132 136 148 143 141 108 84 89 89 89 65 62 71 75 80 80 53 49 43 38 51 76 90 158 206 206 206 209 213 214 215 213 212 212 197 186 193 198 217 283 303 295
149 148 148 158 155 155 134 124 103 102 92 78 67 39 50 49 14 357 14 51 44 36 18 28 48 65 69 176 197 194 212 218 217 225 230 230 226 230 214 222 252 284 292 286
164 156 161 175 184 109 107 136 94 62 59 67 77 59 25 3 321 325 321 257 163 68 36 10 7 11 32 24 202 198 202 199 195 211 223 240 202 210 226 246 254 275 288 292
166 169 174 201 212 228 236 207 287 289 63 55 36 359 300 259 266 272 333 336 271 297 35 14 0 5 6 6 52 133 173 190 161 159 158 190 179 206 245 267 296 294 289 306
178 187 205 223 240 245 255 236 273 318 51 39 56 69 15 331 55 7 356 0 278 242 287 326 353 342 338 344 31 93 117 136 138 135 150 174 164 214 279 306 299 304 306 308
188 205 224 233 241 218 208 227 263 303 334 30 42 34 59 23 42 31 3 328 283 276 275 261 275 293 282 238 142 134 139 136 136 145 151 149 160 192 239 262 279 287 288 293
203 201 203 197 172 194 197 226 258 286 298 298 302 11 48 52 12 355 346 349 282 274 262 266 281 256 238 191 144 144 132 132 138 139 162 181 191 208 233 243 258 284 284 279
181 176 172 182 194 201 209 244 261 276 292 301 310 301 323 324 314 320 325 321 301 275 274 262 276 266 235 214 198 167 158 176 197 192 201 222 243 262 268 250 290 290 294 287
178 181 176 197 201 213 235 244 246 255 271 288 296 303 314 313 294 317 312 300 296 282 255 249 257 246 235 211 211 201 195 208 220 233 232 257 245 149 61 144 249 285 285 298
193 196 190 204 223 237 250 276 290 285 296 284 289 306 317 299 313 320 296 293 289 262 258 249 251 222 212 201 208 213 220 231 247 252 256 278 235 256 254 264 280 275 290 294
201 211 213 219 228 235 251 257 308 300 323 309 316 318 325 334 340 320 277 279 272 249 247 237 239 237 220 215 218 226 226 225 239 247 259 278 278 287 292 288 293 295 295 293
224 234 229 235 247 239 262 279 301 308 305 297 306 321 348 343 340 314 294 307 293 244 233 220 206 212 216 226 233 231 233 216 223 246 272 274 279 285 289 286 292 294 290 289
241 238 243 235 235 249 255 275 291 300 289 284 290 285 333 338 341 305 275 304 317 235 215 172 197 215 220 220 223 233 246 240 235 242 268 284 284 282 289 291 292 287 282 288
233 241 233 237 242 249 258 270 285 287 284 278 289 301 313 312 327 301 249 282 352 135 166 179 203 226 238 240 237 253 270 275 271 271 282 281 290 300 303 295 292 287 287 285
241 246 246 242 244 239 253 261 277 273 260 260 272 289 296 307 321 305 241 248 278 204 217 223 237 243 253 263 279 289 294 290 291 298 295 295 295 293 283 277 277 280 281 281
243 247 245 253 254 256 261 258 263 272 236 245 254 267 281 306 327 280 201 234 251 218 224 237 250 261 278 291 294 290 287 280 277 287 293 293 288 281 279 279 284 286 291 293
243 246 249 246 250 260 262 261 263 253 233 237 243 258 269 294 328 311 207 221 235 237 233 244 258 272 283 288 284 270 263 259 268 274 277 276 277 274 274 271 275 280 284 285
248 251 248 250 253 253 258 257 267 249 234 236 241 247 266 282 320 290 310 328 253 245 251 257 261 264 272 272 270 266 271 270 267 267 268 269 272 272 266 264 275 282 288 294
248 249 245 244 245 247 246 249 254 233 233 238 242 247 266 265 245 269 282 304 309 272 258 257 259 268 267 261 254 251 258 264 267 267 265 267 269 269 264 263 268 273 283 295
247 245 244 246 247 245 247 239 234 239 229 235 244 249 253 256 269 277 278 304 304 300 287 271 269 261 249 255 257 243 253 261 275 277 276 270 266 265 267 269 273 280 288 294
248 246 246 244 244 246 245 242 234 232 231 239 237 234 235 248 260 260 277 287 294 286 286 271 272 268 272 252 277 239 260 278 281 280 277 274 269 267 269 272 274 280 288 293
247 246 244 244 244 244 243 240 236 235 230 236 243 237 239 246 255 259 261 278 271 268 273 267 273 268 249 249 268 264 272 282 284 283 285 286 288 284 281 280 282 289 292 294
253 249 244 243 245 244 242 241 238 235 235 235 234 239 237 247 247 251 256 263 266 250 273 269 269 267 253 251 261 270 279 280 280 284 292 298 298 291 287 288 292 295 296 298
253 252 249 245 242 241 241 241 241 240 239 237 238 239 238 241 241 242 251 256 262 253 263 265 262 259 259 257 262 267 271 278 282 286 297 299 285 285 293 298 298 297 298 298
Height
5892 5896 5899 5902 5904 5906 5907 5908 5907 5907 5906 5906 5905 5903 5901 5903 5904 5903 5900 5899 5897 5895 5896 5898 5899 5901 5903 5904 5906 5908 5912 5914 5916 5918 5919 5921 5923 5925 5926 5927 5926 5926 5926 5926
5895 5897 5899 5902 5906 5906 5909 5909 5908 5908 5907 5908 5906 5905 5904 5904 5906 5905 5903 5901 5901 5900 5899 5898 5900 5901 5903 5905 5907 5909 5909 5911 5914 5917 5918 5919 5922 5924 5925 5926 5925 5925 5925 5925
5896 5901 5903 5905 5906 5908 5909 5909 5909 5909 5908 5908 5908 5907 5907 5906 5906 5906 5906 5904 5903 5902 5901 5902 5902 5902 5903 5904 5906 5908 5909 5910 5913 5915 5917 5919 5921 5923 5924 5925 5925 5924 5924 5924
5898 5901 5903 5906 5907 5909 5910 5910 5909 5909 5909 5909 5909 5909 5908 5907 5906 5906 5907 5907 5905 5903 5903 5903 5903 5903 5902 5902 5904 5905 5907 5909 5912 5914 5916 5919 5921 5922 5923 5924 5924 5924 5923 5922
5899 5901 5903 5906 5907 5909 5910 5911 5911 5910 5910 5909 5910 5910 5908 5906 5906 5906 5906 5906 5905 5904 5904 5904 5904 5904 5903 5903 5901 5902 5905 5908 5910 5912 5914 5918 5919 5921 5922 5923 5922 5922 5921 5920
5900 5902 5904 5905 5906 5908 5910 5911 5911 5910 5910 5911 5910 5909 5908 5905 5905 5904 5905 5906 5906 5905 5904 5905 5905 5905 5904 5904 5903 5902 5904 5906 5908 5910 5914 5918 5920 5920 5921 5922 5923 5922 5920 5919
5899 5902 5903 5904 5906 5908 5908 5909 5910 5911 5911 5910 5909 5908 5907 5905 5905 5905 5905 5905 5905 5906 5904 5904 5904 5905 5905 5906 5905 5905 5906 5908 5910 5912 5916 5918 5918 5919 5921 5922 5922 5923 5921 5918
5897 5900 5901 5902 5904 5907 5908 5909 5910 5910 5910 5911 5910 5909 5910 5908 5906 5906 5905 5904 5903 5903 5904 5904 5903 5903 5904 5905 5906 5907 5908 5909 5911 5912 5914 5916 5918 5919 5920 5919 5919 5918 5918 5918
5895 5899 5900 5902 5905 5907 5908 5909 5909 5909 5909 5910 5910 5911 5911 5910 5908 5906 5904 5901 5900 5900 5901 5902 5902 5901 5903 5904 5905 5907 5908 5910 5911 5912 5913 5915 5916 5916 5916 5916 5916 5915 5914 5913
5895 5898 5900 5902 5904 5905 5906 5908 5909 5908 5909 5908 5908 5909 5909 5909 5907 5905 5903 5900 5898 5898 5900 5900 5901 5902 5902 5903 5904 5906 5907 5909 5910 5912 5913 5914 5914 5915 5915 5914 5915 5913 5912 5911
5893 5895 5899 5900 5901 5903 5905 5906 5907 5908 5907 5907 5907 5907 5906 5905 5903 5901 5899 5897 5895 5895 5896 5897 5899 5901 5901 5902 5903 5905 5906 5908 5909 5910 5911 5911 5912 5913 5913 5913 5913 5912 5910 5909
5892 5895 5897 5899 5899 5901 5903 5904 5905 5905 5905 5904 5904 5904 5903 5902 5900 5896 5893 5892 5891 5890 5891 5894 5896 5897 5900 5901 5903 5905 5906 5907 5908 5909 5909 5910 5911 5912 5912 5911 5911 5910 5907 5908
5891 5893 5894 5896 5898 5899 5900 5901 5901 5901 5900 5900 5901 5901 5899 5897 5895 5893 5890 5888 5886 5886 5888 5890 5892 5896 5898 5900 5902 5903 5905 5906 5906 5907 5908 5909 5910 5911 5910 5909 5909 5909 5907 5906
5888 5889 5892 5894 5895 5896 5897 5897 5897 5897 5897 5897 5898 5898 5896 5895 5893 5890 5888 5886 5883 5882 5882 5887 5892 5894 5896 5898 5899 5901 5902 5903 5904 5904 5905 5906 5906 5907 5907 5907 5907 5906 5906 5905
5884 5886 5888 5890 5891 5892 5893 5893 5893 5894 5895 5895 5895 5895 5894 5892 5891 5888 5886 5885 5883 5879 5881 5887 5891 5894 5896 5897 5899 5900 5900 5901 5902 5902 5902 5902 5903 5903 5903 5905 5904 5904 5904 5903
5879 5881 5883 5885 5886 5887 5888 5889 5889 5890 5890 5891 5891 5892 5892 5890 5889 5886 5885 5883 5882 5880 5882 5887 5890 5892 5894 5896 5897 5897 5898 5898 5898 5898 5898 5899 5899 5899 5899 5901 5902 5901 5901 5900
5874 5876 5878 5879 5880 5881 5882 5884 5885 5884 5886 5888 5889 5890 5889 5888 5886 5885 5884 5883 5883 5885 5886 5888 5889 5890 5891 5892 5893 5894 5895 5896 5895 5895 5896 5898 5897 5897 5897 5899 5899 5899 5898 5897
5867 5868 5870 5872 5874 5873 5879 5877 5879 5880 5882 5884 5886 5886 5886 5886 5884 5883 5882 5883 5883 5884 5886 5887 5887 5887 5889 5890 5891 5892 5893 5893 5894 5893 5893 5893 5894 5894 5894 5895 5895 5894 5893 5892
5860 5861 5862 5863 5865 5867 5868 5871 5874 5875 5877 5879 5881 5882 5882 5882 5882 5882 5881 5882 5882 5882 5883 5883 5885 5887 5887 5887 5888 5891 5891 5891 5891 5890 5891 5891 5892 5892 5892 5893 5892 5890 5888 5887
5850 5851 5853 5854 5856 5857 5862 5864 5867 5869 5871 5873 5875 5878 5878 5880 5880 5880 5880 5881 5882 5882 5882 5882 5884 5885 5887 5887 5887 5889 5890 5889 5889 5888 5888 5888 5888 5888 5888 5888 5887 5885 5884 5883
5837 5839 5841 5843 5844 5847 5852 5855 5859 5861 5867 5867 5870 5872 5874 5877 5876 5876 5876 5878 5877 5878 5879 5880 5883 5884 5885 5884 5885 5885 5885 5886 5886 5884 5883 5883 5883 5884 5884 5883 5881 5881 5880 5879
5822 5825 5827 5830 5831 5833 5841 5845 5849 5854 5857 5860 5863 5866 5868 5871 5872 5874 5873 5873 5874 5874 5875 5876 5878 5881 5880 5879 5880 5881 5881 5880 5880 5880 5879 5879 5879 5879 5879 5877 5875 5875 5874 5874
5804 5807 5811 5814 5814 5820 5827 5832 5838 5844 5848 5850 5855 5858 5862 5866 5866 5869 5870 5870 5871 5871 5872 5873 5874 5876 5876 5875 5874 5875 5877 5875 5875 5876 5876 5875 5874 5873 5872 5870 5870 5868 5868 5868
5787 5790 5794 5799 5797 5804 5811 5817 5823 5830 5837 5840 5845 5850 5854 5858 5860 5862 5864 5866 5867 5868 5868 5869 5870 5871 5871 5871 5871 5871 5871 5872 5872 5872 5872 5870 5867 5865 5865 5864 5864 5862 5862 5862
5768 5771 5775 5778 5781 5787 5793 5798 5805 5813 5820 5826 5832 5838 5844 5848 5851 5855 5857 5859 5861 5863 5864 5864 5865 5866 5866 5866 5866 5866 5867 5868 5868 5867 5866 5863 5860 5860 5860 5859 5858 5858 5858 5857
5749 5751 5753 5758 5762 5767 5774 5781 5787 5794 5803 5811 5818 5824 5830 5836 5841 5846 5849 5852 5854 5855 5857 5859 5859 5861 5861 5861 5861 5862 5863 5863 5863 5862 5859 5856 5856 5857 5856 5855 5854 5853 5852 5851